Date String (YYYY-MM-DD hh:mm:ss) UTC,Instrument flags,Ambient pressure (hPa),Sample flow (lpm),Bypass flow (lpm),Sample temperature (°C),Ambient temperature (°C),ASC tube jacket temperature (°C),LED temperature (°C),Box temperature (°C),Sample RH (%),Span deviation,Mass concentration (μg/m³),Mass concentration (μg/m³),Mass concentration (μg/m³)
DateTimeUTC,F1_M11,P_M11,Q1_M11,Q2_M11,T1_M11,T2_M11,T3_M11,T4_M11,T5_M11,U1_M11,ZSPAN_M11,X0_M11,X2_M11,X1_M11
2022-01-17 10:00:00,,0823.3,5.00,0.00,22.3,22.0,00.0,31.3,24.0,10.8,0000.0,0006.19,0003.31,0002.84
2022-01-17 10:01:00,,0823.4,4.99,0.00,22.4,22.8,00.0,31.3,24.3,10.7,0000.0,0006.28,0003.32,0002.83
2022-01-17 10:02:00,,0823.3,5.01,0.00,22.5,23.1,00.0,31.3,24.5,10.6,0000.0,0006.39,0003.34,0002.83
2022-01-17 10:03:00,,0823.2,5.00,0.00,22.6,23.0,00.0,31.4,24.5,10.6,0000.0,0006.34,0003.32,0002.82
2022-01-17 10:04:00,,0823.3,5.00,0.00,22.6,22.8,00.0,31.4,24.5,10.6,0000.0,0006.83,0003.28,0002.80
2022-01-17 10:05:00,,0823.4,5.00,0.00,22.6,22.6,00.0,31.4,24.5,10.6,0000.0,0006.73,0003.24,0002.79
2022-01-17 10:06:00,,0823.3,4.99,0.00,22.6,22.5,00.0,31.4,24.4,10.6,0000.0,0006.59,0003.21,0002.77
2022-01-17 10:07:00,,0823.2,4.99,0.00,22.6,22.4,00.0,31.4,24.4,10.6,0000.0,0006.47,0003.21,0002.76
2022-01-17 10:08:00,,0823.3,5.01,0.00,22.6,22.3,00.0,31.4,24.4,10.6,0000.0,0006.62,0003.25,0002.75
2022-01-17 10:09:00,,0823.3,5.00,0.00,22.6,22.2,00.0,31.4,24.4,10.5,0000.0,0005.81,0003.24,0002.74
2022-01-17 10:10:00,,0823.1,4.99,0.00,22.6,22.1,00.0,31.4,24.4,10.5,0000.0,0005.56,0003.24,0002.74
2022-01-17 10:11:00,,0823.1,5.02,0.00,22.6,22.1,00.0,31.5,24.4,10.4,0000.0,0005.68,0003.24,0002.72
2022-01-17 10:12:00,,0823.1,5.00,0.00,22.6,22.0,00.0,31.5,24.4,10.5,0000.0,0006.27,0003.23,0002.70
2022-01-17 10:13:00,,0823.1,4.98,0.00,22.6,22.0,00.0,31.5,24.4,10.6,0000.0,0006.26,0003.21,0002.68
2022-01-17 10:14:00,,0823.1,5.01,0.00,22.6,22.0,00.0,31.5,24.4,10.6,0000.0,0006.58,0003.22,0002.68
2022-01-17 10:15:00,,0823.2,4.99,0.00,22.6,22.0,00.0,31.5,24.4,10.6,0000.0,0006.96,0003.20,0002.67
2022-01-17 10:16:00,,0823.3,5.00,0.00,22.6,22.0,00.0,31.5,24.3,10.6,0000.0,0006.72,0003.19,0002.66
2022-01-17 10:17:00,,0823.3,5.01,0.00,22.5,21.9,00.0,31.5,24.3,10.6,0000.0,0006.66,0003.18,0002.65
2022-01-17 10:18:00,,0823.2,4.99,0.00,22.5,21.9,00.0,31.5,24.3,10.6,0000.0,0006.92,0003.19,0002.65
2022-01-17 10:19:00,,0823.3,5.01,0.00,22.5,21.9,00.0,31.5,24.3,10.6,0000.0,0007.72,0003.17,0002.64
2022-01-17 10:20:00,,0823.2,4.99,0.00,22.5,21.8,00.0,31.5,24.3,10.6,0000.0,0007.95,0003.16,0002.62
2022-01-17 10:21:00,,0823.2,4.99,0.00,22.5,21.8,00.0,31.5,24.3,10.6,0000.0,0007.94,0003.16,0002.61
2022-01-17 10:22:00,,0823.1,5.01,0.00,22.5,21.8,00.0,31.5,24.2,10.6,0000.0,0007.89,0003.16,0002.62
2022-01-17 10:23:00,,0823.1,4.99,0.00,22.5,21.8,00.0,31.5,24.2,10.6,0000.0,0007.54,0003.16,0002.64
2022-01-17 10:24:00,,0823.1,4.99,0.00,22.5,21.8,00.0,31.5,24.2,10.6,0000.0,0007.46,0003.18,0002.67
2022-01-17 10:25:00,,0823.0,5.01,0.00,22.5,21.8,00.0,31.5,24.2,10.6,0000.0,0007.39,0003.18,0002.69
2022-01-17 10:26:00,,0823.1,4.98,0.00,22.5,21.8,00.0,31.5,24.2,10.7,0000.0,0006.78,0003.24,0002.75
2022-01-17 10:27:00,,0822.9,5.01,0.00,22.5,21.8,00.0,31.5,24.3,10.7,0000.0,0006.90,0003.29,0002.81
2022-01-17 10:28:00,,0823.0,5.01,0.00,22.5,21.7,00.0,31.5,24.2,10.7,0000.0,0007.35,0003.33,0002.86
2022-01-17 10:29:00,,0823.0,4.99,0.00,22.5,21.7,00.0,31.5,24.2,10.7,0000.0,0007.90,0003.37,0002.92
2022-01-17 10:30:00,,0823.0,5.01,0.00,22.5,21.7,00.0,31.5,24.2,10.7,0000.0,0007.76,0003.43,0002.99
2022-01-17 10:31:00,,0823.0,5.00,0.00,22.5,21.7,00.0,31.5,24.2,10.7,0000.0,0007.87,0003.46,0003.06
2022-01-17 10:32:00,,0822.8,4.99,0.00,22.4,21.7,00.0,31.4,24.2,10.7,0000.0,0008.21,0003.49,0003.09
2022-01-17 10:33:00,,0822.7,5.01,0.00,22.4,21.7,00.0,31.4,24.2,10.7,0000.0,0008.36,0003.55,0003.14
2022-01-17 10:34:00,,0822.9,4.99,0.00,22.4,21.7,00.0,31.4,24.1,10.6,0000.0,0008.37,0003.55,0003.15
2022-01-17 10:35:00,,0823.0,5.01,0.00,22.4,21.7,00.0,31.4,24.2,10.7,0000.0,0008.32,0003.54,0003.16
2022-01-17 10:36:00,,0822.8,4.99,0.00,22.4,21.7,00.0,31.4,24.2,10.7,0000.0,0008.39,0003.57,0003.18
2022-01-17 10:37:00,,0822.8,5.00,0.00,22.4,21.6,00.0,31.4,24.1,10.7,0000.0,0008.23,0003.57,0003.19
2022-01-17 10:38:00,,0822.7,5.01,0.00,22.4,21.7,00.0,31.4,24.1,10.7,0000.0,0008.16,0003.54,0003.18
2022-01-17 10:39:00,,0822.5,5.00,0.00,22.5,22.1,00.0,31.4,24.2,10.6,0000.0,0008.33,0003.56,0003.18
2022-01-17 10:40:00,,0822.6,4.98,0.00,22.6,22.9,00.0,31.5,24.5,10.4,0000.0,0008.06,0003.58,0003.17
2022-01-17 10:41:00,,0822.6,5.00,0.00,22.7,23.2,00.0,31.5,24.7,10.4,0000.0,0007.34,0003.56,0003.15
2022-01-17 10:42:00,,0822.7,5.01,0.00,22.7,23.1,00.0,31.5,24.7,10.3,0000.0,0006.89,0003.54,0003.13
2022-01-17 10:43:00,,0822.7,5.00,0.00,22.8,22.9,00.0,31.5,24.7,10.3,0000.0,0006.18,0003.54,0003.12
2022-01-17 10:44:00,,0822.6,5.00,0.00,22.7,22.7,00.0,31.6,24.6,10.4,0000.0,0006.39,0003.51,0003.10
2022-01-17 10:45:00,,0822.6,4.99,0.00,22.7,22.6,00.0,31.6,24.6,10.4,0000.0,0007.11,0003.55,0003.09
2022-01-17 10:46:00,,0822.7,5.00,0.00,22.7,22.5,00.0,31.6,24.6,10.4,0000.0,0007.26,0003.56,0003.07
2022-01-17 10:47:00,,0822.6,5.00,0.00,22.7,22.3,00.0,31.6,24.5,10.4,0000.0,0007.91,0003.57,0003.07
2022-01-17 10:48:00,,0822.6,4.99,0.00,22.7,22.2,00.0,31.6,24.4,10.4,0000.0,0008.23,0003.59,0003.08
2022-01-17 10:49:00,,0822.7,4.99,0.00,22.6,22.1,00.0,31.6,24.4,10.5,0000.0,0008.31,0003.60,0003.09
2022-01-17 10:50:00,,0822.7,5.00,0.00,22.6,22.1,00.0,31.6,24.4,10.6,0000.0,0008.02,0003.60,0003.11
2022-01-17 10:51:00,,0822.7,5.00,0.00,22.6,22.0,00.0,31.6,24.4,10.5,0000.0,0007.87,0003.56,0003.13
2022-01-17 10:52:00,,0822.6,5.01,0.00,22.6,22.0,00.0,31.6,24.4,10.5,0000.0,0007.82,0003.57,0003.17
2022-01-17 10:53:00,,0822.5,5.00,0.00,22.6,22.0,00.0,31.6,24.4,10.6,0000.0,0007.82,0003.58,0003.20
2022-01-17 10:54:00,,0822.5,5.00,0.00,22.6,21.9,00.0,31.6,24.4,10.6,0000.0,0008.24,0003.62,0003.24
2022-01-17 10:55:00,,0822.6,5.01,0.00,22.6,21.9,00.0,31.6,24.3,10.6,0000.0,0008.18,0003.65,0003.28
2022-01-17 10:56:00,,0822.5,4.99,0.00,22.6,21.9,00.0,31.6,24.3,10.6,0000.0,0007.82,0003.65,0003.31
2022-01-17 10:57:00,,0822.5,5.01,0.00,22.6,21.8,00.0,31.6,24.3,10.6,0000.0,0008.03,0003.68,0003.34
2022-01-17 10:58:00,,0822.5,4.99,0.00,22.5,21.8,00.0,31.5,24.3,10.6,0000.0,0007.56,0003.69,0003.35
2022-01-17 10:59:00,,0822.4,5.01,0.00,22.5,21.8,00.0,31.5,24.3,10.6,0000.0,0007.07,0003.66,0003.35
